GW4413 Weather Reports


Display with metric or nautical units.
time (UTC)temp
F
wind
direction
speed
MPH
gust
MPH
rain 1hr
in
rain 24hr
in
rain mn
in
humidity
%
barometer
mb
20260510015002 59 306 0.0 0.0 0.00 0.00 0.00 67 1017.3
20260510014004 60 306 0.0 1.0 0.00 0.00 0.00 67 1017.6
20260510013016 60 306 0.0 0.0 0.00 0.00 0.00 70 1017.8
20260510012503 60 306 0.0 0.0 0.00 0.00 0.00 71 1017.8
20260510012003 60 306 0.0 0.0 0.00 0.00 0.00 69 1017.9
20260510011518 60 306 0.0 0.0 0.00 0.00 0.00 70 1018.1
20260510011004 60 306 0.0 0.0 0.00 0.00 0.00 71 1018.1
20260510010504 60 306 0.0 1.0 0.00 0.00 0.00 71 1018.2
20260510010015 60 306 0.0 1.0 0.00 0.00 0.00 70 1018.3
20260510005503 60 306 0.0 1.0 0.00 0.00 0.00 71 1018.5
20260510005003 59 306 0.0 1.0 0.00 0.00 0.00 71 1018.4
20260510004522 59 306 0.0 1.0 0.00 0.00 0.00 72 1018.4
20260510004003 59 306 0.0 1.0 0.00 0.00 0.00 72 1018.5
20260510003503 59 306 0.0 1.0 0.00 0.00 0.00 74 1018.6
20260510003019 59 306 0.0 1.0 0.00 0.00 0.00 74 1018.6
20260510002505 59 306 0.0 1.0 0.00 0.00 0.00 76 1018.6
20260510002006 58 306 0.0 0.0 0.00 0.00 0.00 78 1018.6
20260510001518 58 306 0.0 1.0 0.00 0.00 0.00 79 1018.7
20260510001006 58 306 0.0 1.0 0.00 0.00 0.00 80 1018.7
20260510000504 57 306 0.0 1.0 0.00 0.00 0.00 85 1018.8
20260510000019 57 306 0.0 1.0 0.00 0.00 0.00 87 1018.8
20260509235504 57 306 0.0 1.0 0.00 0.00 0.00 89 1018.9
20260509235004 57 306 0.0 1.0 0.00 0.00 0.00 90 1019.0
20260509234534 57 306 0.0 2.0 0.00 0.00 0.00 91 1019.1
20260509234002 57 306 0.0 2.0 0.00 0.00 0.00 91 1019.1
20260509233503 57 306 0.0 1.0 0.00 0.00 0.00 91 1019.1
20260509232503 57 306 0.0 2.0 0.00 0.00 0.00 92 1019.2
20260509232007 57 306 0.0 2.0 0.00 0.00 0.00 91 1019.3
20260509231520 57 306 0.0 1.0 0.00 0.00 0.00 92 1019.4
20260509230504 56 306 0.0 1.0 0.00 0.00 0.00 93 1019.6
20260509230018 56 306 0.0 1.0 0.00 0.00 0.00 93 1019.7
20260509225504 56 306 0.0 2.0 0.00 0.00 0.00 93 1019.7
20260509225009 56 306 0.0 2.0 0.00 0.00 0.00 93 1019.8
20260509224528 56 306 0.0 2.0 0.00 0.00 0.00 93 1019.8
20260509224004 56 306 0.0 2.0 0.00 0.00 0.00 92 1019.9
20260509223511 56 352 0.0 2.0 0.00 0.00 0.00 92 1020.1
20260509223019 56 308 0.0 2.0 0.00 0.00 0.00 93 1020.2
20260509222504 56 301 0.0 2.0 0.00 0.00 0.00 94 1020.2
20260509222007 55 301 0.0 1.0 0.00 0.00 0.00 94 1020.3
20260509221518 55 301 0.0 1.0 0.00 0.00 0.00 94 1020.4
20260509221005 55 301 0.0 2.0 0.00 0.00 0.00 94 1020.5
20260509220515 55 301 0.0 2.0 0.00 0.00 0.00 93 1020.6
20260509220020 56 301 0.0 2.0 0.00 0.00 0.00 94 1020.6
20260509215507 55 323 0.0 2.0 0.00 0.00 0.00 94 1020.6
20260509215009 55 288 0.0 2.0 0.00 0.00 0.00 94 1020.6
20260509214520 55 293 0.0 2.0 0.00 0.00 0.00 94 1020.5
20260509214004 55 43 0.0 3.0 0.00 0.00 0.00 94 1020.4
20260509213508 55 46 0.0 3.0 0.00 0.00 0.00 94 1020.5
20260509212504 55 67 0.0 2.0 0.00 0.00 0.00 95 1020.6
20260509212007 55 323 0.0 2.0 0.00 0.00 0.00 95 1020.6
20260509211521 55 323 0.0 2.0 0.00 0.00 0.00 95 1020.7
20260509211005 55 323 0.0 3.0 0.00 0.00 0.00 95 1020.9
20260509210507 55 351 0.0 3.0 0.00 0.00 0.00 96 1020.9
20260509210018 54 9 0.0 3.0 0.00 0.00 0.00 96 1020.9
20260509205007 54 296 0.0 2.0 0.00 0.00 0.00 95 1021.0
20260509204518 53 251 0.0 2.0 0.00 0.00 0.00 95 1021.0
20260509204006 54 180 0.0 2.0 0.00 0.00 0.00 95 1021.0
20260509203511 54 329 0.0 2.0 0.00 0.00 0.00 95 1021.0
20260509203017 53 339 0.0 1.0 0.00 0.00 0.00 95 1021.0
20260509202503 54 339 0.0 1.0 0.00 0.00 0.00 95 1020.9
20260509202011 53 331 0.0 1.0 0.00 0.00 0.00 95 1020.8
20260509201520 53 55 0.0 2.0 0.00 0.00 0.00 94 1020.9
20260509201003 54 55 0.0 2.0 0.00 0.00 0.00 94 1021.0
20260509200020 55 319 0.0 1.0 0.00 0.00 0.00 91 1021.1
20260509195504 57 309 0.0 4.0 0.00 0.00 0.00 86 1021.2
20260509195009 60 342 0.0 4.0 0.00 0.00 0.00 71 1021.3
20260509194522 60 11 1.0 2.0 0.00 0.00 0.00 72 1021.3
20260509193512 60 72 0.0 2.0 0.00 0.00 0.00 70 1021.5
20260509193022 59 72 0.0 2.0 0.00 0.00 0.00 71 1021.4
20260509192506 59 72 0.0 2.0 0.00 0.00 0.00 71 1021.5
20260509192011 59 72 0.0 2.0 0.00 0.00 0.00 73 1021.6
20260509191004 59 72 0.0 2.0 0.00 0.00 0.00 74 1021.7
20260509190509 59 72 1.0 2.0 0.00 0.00 0.00 73 1021.8
20260509185503 58 45 0.0 2.0 0.00 0.00 0.00 75 1021.7
20260509184534 58 25 0.0 1.0 0.00 0.00 0.00 75 1021.7
20260509184009 58 69 0.0 2.0 0.00 0.00 0.00 75 1021.7
20260509183508 58 69 0.0 2.0 0.00 0.00 0.00 76 1021.8
20260509183018 58 69 0.0 2.0 0.00 0.00 0.00 75 1021.7
20260509182511 58 67 0.0 2.0 0.00 0.00 0.00 75 1021.8
20260509182010 58 87 0.0 3.0 0.00 0.00 0.00 75 1021.8
20260509181520 58 64 1.0 3.0 0.00 0.00 0.00 75 1021.8
20260509180514 58 50 0.0 2.0 0.00 0.00 0.00 75 1022.0
20260509175507 57 50 0.0 2.0 0.00 0.00 0.00 75 1022.0
20260509175010 57 50 0.0 2.0 0.00 0.00 0.00 75 1022.0
20260509174528 57 50 0.0 2.0 0.00 0.00 0.00 75 1022.0
20260509174008 57 50 0.0 2.0 0.00 0.00 0.00 76 1022.0
20260509173512 56 50 0.0 1.0 0.00 0.00 0.00 76 1022.0
20260509173019 56 50 0.0 2.0 0.00 0.00 0.00 77 1022.0
20260509172513 56 50 0.0 2.0 0.00 0.00 0.00 77 1022.0
20260509172011 56 50 0.0 2.0 0.00 0.00 0.00 77 1022.0
20260509171519 56 50 1.0 2.0 0.00 0.00 0.00 77 1022.0
20260509171010 55 50 0.0 2.0 0.00 0.00 0.00 77 1022.1
20260509170510 55 50 0.0 2.0 0.00 0.00 0.00 77 1022.1
20260509165513 55 50 0.0 1.0 0.00 0.00 0.00 79 1022.2
20260509165007 55 50 0.0 1.0 0.00 0.00 0.00 79 1022.2
20260509163026 54 50 0.0 1.0 0.00 0.00 0.00 79 1022.2
20260509162511 54 50 0.0 1.0 0.00 0.00 0.00 79 1022.3
20260509162008 54 50 0.0 2.0 0.00 0.00 0.00 79 1022.3
20260509161519 53 50 0.0 2.0 0.00 0.00 0.00 79 1022.4
20260509161012 53 50 0.0 0.0 0.00 0.00 0.00 81 1022.3
20260509160508 53 50 0.0 0.0 0.00 0.00 0.00 81 1022.4
20260509160018 53 50 0.0 1.0 0.00 0.00 0.00 82 1022.5
20260509155508 53 50 0.0 1.0 0.00 0.00 0.00 81 1022.5
20260509155009 52 50 0.0 0.0 0.00 0.00 0.00 82 1022.6
20260509153509 52 50 0.0 0.0 0.00 0.00 0.00 83 1022.6
20260509153028 51 50 0.0 0.0 0.00 0.00 0.00 84 1022.6
20260509152004 51 50 0.0 0.0 0.00 0.00 0.00 84 1022.6
20260509151522 51 50 0.0 0.0 0.00 0.00 0.00 84 1022.6
20260509150507 50 50 0.0 0.0 0.00 0.00 0.00 85 1022.5
20260509150019 50 50 0.0 0.0 0.00 0.00 0.00 86 1022.7
20260509145506 50 50 0.0 0.0 0.00 0.00 0.00 87 1022.8
20260509145004 50 50 0.0 0.0 0.00 0.00 0.00 87 1022.8
20260509144006 49 50 0.0 0.0 0.00 0.00 0.00 88 1022.8
20260509143504 49 50 0.0 0.0 0.00 0.00 0.00 87 1022.9
20260509143020 49 50 0.0 0.0 0.00 0.00 0.00 87 1022.9
20260509142504 49 50 0.0 0.0 0.00 0.00 0.00 87 1022.8
20260509142008 49 50 0.0 0.0 0.00 0.00 0.00 87 1022.8
20260509141536 49 50 0.0 0.0 0.00 0.00 0.00 87 1022.9
20260509141004 49 50 0.0 0.0 0.00 0.00 0.00 87 1023.0
20260509140503 49 50 0.0 0.0 0.00 0.00 0.00 86 1023.0
20260509140025 49 50 0.0 0.0 0.00 0.00 0.00 86 1022.9
20260509135506 49 50 0.0 0.0 0.00 0.00 0.00 86 1023.0
20260509135012 49 50 0.0 0.0 0.00 0.00 0.00 86 1023.0
20260509134528 49 50 0.0 0.0 0.00 0.00 0.00 86 1023.0
20260509134004 49 50 0.0 0.0 0.00 0.00 0.00 86 1023.0
20260509133509 49 50 0.0 0.0 0.00 0.00 0.00 85 1022.9
20260509133021 49 50 0.0 0.0 0.00 0.00 0.00 85 1022.9
20260509132510 49 50 0.0 0.0 0.00 0.00 0.00 85 1022.8
20260509132010 49 50 0.0 0.0 0.00 0.00 0.00 85 1022.8
20260509131526 49 50 0.0 0.0 0.00 0.00 0.00 85 1022.8
20260509131004 49 50 0.0 0.0 0.00 0.00 0.00 85 1022.8
20260509130511 49 50 0.0 0.0 0.00 0.00 0.00 85 1022.9
20260509130025 49 50 0.0 0.0 0.00 0.00 0.00 85 1022.9
20260509125010 49 50 0.0 0.0 0.00 0.00 0.00 85 1022.8
20260509124522 49 50 0.0 0.0 0.00 0.00 0.00 84 1022.8
20260509124003 49 50 0.0 0.0 0.00 0.00 0.00 85 1022.8
20260509123507 49 50 0.0 0.0 0.00 0.00 0.00 85 1022.7
20260509123019 49 50 0.0 0.0 0.00 0.00 0.00 84 1022.8
20260509122504 49 50 0.0 0.0 0.00 0.00 0.00 85 1022.8
20260509122009 49 50 0.0 0.0 0.00 0.00 0.00 84 1022.9
20260509121520 49 50 0.0 0.0 0.00 0.00 0.00 84 1022.9
20260509121005 49 50 0.0 0.0 0.00 0.00 0.00 84 1022.9
20260509120511 49 50 0.0 0.0 0.00 0.00 0.00 84 1022.9
20260509120024 49 50 0.0 0.0 0.00 0.00 0.00 84 1023.0
20260509115505 50 50 0.0 0.0 0.00 0.00 0.00 84 1023.0
20260509115010 49 50 0.0 0.0 0.00 0.00 0.00 84 1023.0
20260509114521 50 50 0.0 0.0 0.00 0.00 0.00 84 1023.0
20260509114008 50 50 0.0 0.0 0.00 0.00 0.00 84 1023.0
20260509113510 50 50 0.0 0.0 0.00 0.00 0.00 84 1023.1
20260509113022 50 50 0.0 0.0 0.00 0.00 0.00 84 1023.1
20260509112503 50 50 0.0 0.0 0.00 0.00 0.00 84 1023.1
20260509112010 50 50 0.0 0.0 0.00 0.00 0.00 84 1023.1
20260509111520 50 50 0.0 0.0 0.00 0.00 0.00 84 1023.1
20260509111004 50 50 0.0 0.0 0.00 0.00 0.00 84 1023.1
20260509110508 50 50 0.0 0.0 0.00 0.00 0.00 84 1023.1
20260509110022 50 50 0.0 0.0 0.00 0.00 0.00 84 1023.1
20260509105510 50 50 0.0 0.0 0.00 0.00 0.00 84 1023.1
20260509104522 50 50 0.0 0.0 0.00 0.00 0.00 84 1023.1
20260509104005 50 50 0.0 0.0 0.00 0.00 0.00 84 1023.1
20260509103508 50 50 0.0 0.0 0.00 0.00 0.00 84 1023.1
20260509103022 50 50 0.0 0.0 0.00 0.00 0.00 84 1023.1
20260509102505 50 50 0.0 0.0 0.00 0.00 0.00 85 1023.1
20260509102011 50 50 0.0 0.0 0.00 0.00 0.00 85 1023.1
20260509101529 49 50 0.0 0.0 0.00 0.00 0.00 84 1023.1
20260509101003 49 50 0.0 0.0 0.00 0.00 0.00 84 1023.1
20260509100507 49 50 0.0 0.0 0.00 0.00 0.00 85 1023.2
20260509100022 49 50 0.0 0.0 0.00 0.00 0.00 85 1023.2
20260509095512 49 50 0.0 0.0 0.00 0.00 0.00 85 1023.2
20260509095010 49 50 0.0 0.0 0.00 0.00 0.00 85 1023.2
20260509094528 49 50 0.0 0.0 0.00 0.00 0.00 85 1023.2
20260509093022 49 50 0.0 0.0 0.00 0.00 0.00 86 1023.2
20260509091524 49 50 0.0 0.0 0.00 0.00 0.00 86 1023.2
20260509091009 49 50 0.0 0.0 0.00 0.00 0.00 86 1023.2
20260509090508 49 50 0.0 0.0 0.00 0.00 0.00 86 1023.2
20260509090022 49 50 0.0 0.0 0.00 0.00 0.00 86 1023.2
20260509085509 49 50 0.0 0.0 0.00 0.00 0.00 86 1023.3
20260509085007 49 50 0.0 0.0 0.00 0.00 0.00 86 1023.4
20260509084521 49 50 0.0 0.0 0.00 0.00 0.00 86 1023.4
20260509084009 49 50 0.0 0.0 0.00 0.00 0.00 86 1023.4
20260509083509 49 50 0.0 0.0 0.00 0.00 0.00 86 1023.5
20260509083020 49 50 0.0 0.0 0.00 0.00 0.00 86 1023.5
20260509082511 49 50 0.0 0.0 0.00 0.00 0.00 86 1023.6
20260509082010 49 50 0.0 0.0 0.00 0.00 0.00 86 1023.6
20260509081525 49 50 0.0 0.0 0.00 0.00 0.00 86 1023.6
20260509081009 49 50 0.0 0.0 0.00 0.00 0.00 86 1023.5
20260509080509 49 50 0.0 0.0 0.00 0.00 0.00 86 1023.6
20260509074522 49 50 0.0 0.0 0.00 0.00 0.00 86 1023.4
20260509074011 49 50 0.0 0.0 0.00 0.00 0.00 86 1023.4
20260509073507 49 50 0.0 0.0 0.00 0.00 0.00 86 1023.4
20260509073036 49 50 0.0 0.0 0.00 0.00 0.00 86 1023.4
20260509072510 49 50 0.0 0.0 0.00 0.00 0.00 86 1023.3
20260509072009 49 50 0.0 0.0 0.00 0.00 0.00 86 1023.3
20260509071012 49 50 0.0 0.0 0.00 0.00 0.00 86 1023.2
20260509070513 49 50 0.0 0.0 0.00 0.00 0.00 86 1023.1
20260509070038 49 50 0.0 0.0 0.00 0.00 0.00 85 1023.2
20260509065513 49 50 0.0 0.0 0.00 0.00 0.00 84 1023.2
20260509064524 49 50 0.0 0.0 0.00 0.00 0.00 83 1023.2
20260509063044 49 50 0.0 0.0 0.00 0.00 0.00 82 1023.1
20260509062511 49 50 0.0 0.0 0.00 0.00 0.00 82 1023.1
20260509062005 49 50 0.0 0.0 0.00 0.00 0.00 81 1023.1
20260509061527 49 50 0.0 0.0 0.00 0.00 0.00 81 1023.0
20260509061007 50 50 0.0 0.0 0.00 0.00 0.00 81 1023.0
20260509060504 50 50 0.0 0.0 0.00 0.00 0.00 81 1023.0
20260509060026 50 50 0.0 0.0 0.00 0.00 0.00 81 1023.0
20260509055507 50 50 0.0 0.0 0.00 0.00 0.00 80 1023.0
20260509054517 50 50 0.0 0.0 0.00 0.00 0.00 80 1023.0
20260509054006 50 50 0.0 0.0 0.00 0.00 0.00 80 1023.0
20260509053504 50 50 0.0 0.0 0.00 0.00 0.00 80 1023.0
20260509053023 50 50 0.0 0.0 0.00 0.00 0.00 80 1023.0
20260509052007 50 50 0.0 0.0 0.00 0.00 0.00 80 1023.0
20260509051519 50 50 0.0 0.0 0.00 0.00 0.00 80 1023.1
20260509051007 50 50 0.0 0.0 0.00 0.00 0.00 79 1023.0
20260509050510 50 50 0.0 0.0 0.00 0.00 0.00 79 1023.0
20260509050023 51 50 0.0 0.0 0.00 0.00 0.00 79 1023.0
20260509045504 51 50 0.0 0.0 0.00 0.00 0.00 79 1023.0
20260509045013 51 50 0.0 0.0 0.00 0.00 0.00 79 1023.0
20260509044524 51 50 0.0 0.0 0.00 0.00 0.00 78 1023.0
20260509044006 51 50 0.0 0.0 0.00 0.00 0.00 77 1022.9
20260509043508 51 50 0.0 0.0 0.00 0.00 0.00 77 1022.9
20260509043022 51 50 0.0 0.0 0.00 0.00 0.00 77 1022.9
20260509042504 52 50 0.0 0.0 0.00 0.00 0.00 77 1022.9
20260509042012 52 50 0.0 0.0 0.00 0.00 0.00 78 1022.9
20260509041522 52 50 0.0 0.0 0.00 0.00 0.00 77 1022.9
20260509040507 52 50 0.0 0.0 0.00 0.00 0.00 76 1022.9
20260509040021 52 50 0.0 1.0 0.00 0.00 0.00 76 1022.8
20260509035503 52 50 0.0 1.0 0.00 0.00 0.00 76 1022.8
20260509035009 52 50 0.0 0.0 0.00 0.00 0.00 76 1022.8
20260509034521 52 50 0.0 0.0 0.00 0.00 0.00 75 1022.7
20260509034007 52 50 0.0 0.0 0.00 0.00 0.00 75 1022.7
20260509033512 52 50 0.0 0.0 0.00 0.00 0.00 75 1022.7
20260509033020 52 50 0.0 0.0 0.00 0.00 0.00 75 1022.6
20260509032507 52 50 0.0 1.0 0.00 0.00 0.00 75 1022.6
20260509032014 52 50 0.0 1.0 0.00 0.00 0.00 75 1022.6
20260509031522 52 50 0.0 1.0 0.00 0.00 0.00 74 1022.6
20260509030511 52 50 0.0 0.0 0.00 0.00 0.00 74 1022.6
20260509030023 53 50 0.0 0.0 0.00 0.00 0.00 74 1022.5
20260509025505 53 50 0.0 0.0 0.00 0.00 0.00 74 1022.5
20260509025009 53 50 0.0 0.0 0.00 0.00 0.00 73 1022.5
20260509024521 53 50 0.0 0.0 0.00 0.00 0.00 72 1022.4
20260509024004 53 50 0.0 0.0 0.00 0.00 0.00 72 1022.4
20260509023510 54 50 0.0 0.0 0.00 0.00 0.00 72 1022.3
20260509023021 54 50 0.0 1.0 0.00 0.00 0.00 73 1022.3
20260509022507 54 50 0.0 1.0 0.00 0.00 0.00 73 1022.3
20260509022011 54 50 0.0 0.0 0.00 0.00 0.00 74 1022.3
20260509021524 54 50 0.0 0.0 0.00 0.00 0.00 74 1022.3
20260509021004 55 50 0.0 0.0 0.00 0.00 0.00 73 1022.3
20260509020511 55 50 0.0 0.0 0.00 0.00 0.00 73 1022.3
20260509020035 55 50 0.0 0.0 0.00 0.00 0.00 73 1022.3